Location: Landers
(34.2911°N, 116.3835°W)
Time: 00:59:56
(UTC-08:00)

X-37B - Visible Passes

Search period start: 01 December 2020 00:00
Search period end: 11 December 2020 00:00
Orbit: 384 x 390 km, 45.0° (Epoch: 26 November)

Date Brightness Start Highest point End Pass type
(mag) Time Alt. Az. Time Alt. Az. Time Alt. Az.
01 Dec 2.7 17:05:29 10° WNW 17:07:47 18° NNW 17:10:05 10° NNE visible
02 Dec 3.0 17:44:58 10° NNW 17:46:23 12° N 17:47:08 12° N visible
04 Dec 3.0 17:24:53 10° NNW 17:26:11 12° N 17:27:28 10° NNE visible
05 Dec 2.9 18:02:45 10° NNW 18:03:59 15° N 18:03:59 15° N visible
06 Dec 2.8 17:04:23 10° NNW 17:05:58 13° N 17:07:33 10° NE visible
06 Dec 3.6 18:40:19 10° NW 18:40:30 11° NW 18:40:30 11° NW visible
07 Dec 2.1 17:41:58 10° NNW 17:44:31 22° NNE 17:44:50 21° NNE visible
08 Dec 1.8 18:19:38 10° NW 18:21:38 34° NW 18:21:38 34° NW visible
09 Dec 1.4 17:21:12 10° NW 17:24:07 33° NNE 17:26:21 15° E visible
09 Dec 3.8 18:57:56 10° W 18:58:39 15° W 18:58:39 15° W visible
10 Dec 1.0 17:59:06 10° WNW 18:02:13 60° SW 18:03:40 28° SE visible
